[[{"header":{"parameterUnit":"m.s-1","parameterCategory":1,"la1":30.2991,"la2":30.254,"lo1":-89.0895,"lo2":-89.0444,"dy":0.0017,"dx":0.0017,"nx":28,"ny":28,"refTime":"2026-02-17T09:00:00:Z","depth":0,"parameterNumber":2,"parameterNumberName":"U-component_of_WINDS"},"data":[0,0,0,0,0,0,0,0,0,0,0,0,0,0,0,0,0,0,0,0,0,0,0,0,0,0,0,0,0,0,0,0,0,0,0,0,0,0,0,0,0,0,0,0,0,0,0,0,0,0,0,0,0,0,0,0,0,0,-2.9004,-2.9006,0,-2.9123,-2.9124,-2.9126,-2.9145,-2.9144,-2.9143,-2.9142,-2.9268,-2.9273,-2.9277,0,0,0,0,0,0,0,0,0,0,0,0,0,-2.8801,-2.8804,-2.9004,-2.9006,-2.9007,-2.9123,-2.9125,-2.9126,-2.9145,-2.9144,-2.9143,-2.9142,-2.9267,-2.9272,-2.9277,0,0,0,0,0,0,0,0,0,0,0,0,0,-2.8901,-2.8805,-2.9004,-2.9031,-2.9034,-2.9123,-2.9125,-2.9127,-2.9146,-2.9144,-2.9142,-2.9141,-2.9265,-2.9272,-2.9278,-2.935,0,0,-2.9298,-2.9301,0,0,0,0,0,0,0,0,-2.8895,-2.8909,-2.9025,-2.9029,-2.9033,-2.9118,-2.9099,-2.9202,-2.9146,-2.9103,-2.9142,-2.914,-2.922,-2.923,-2.9256,-2.9356,-2.9361,-2.9299,-2.9302,-2.9305,-2.9307,0,0,0,0,0,0,0,-2.8888,-2.8904,-2.9051,-2.9027,-2.9032,-2.9039,-2.9051,-2.9119,-2.9169,-2.9107,-2.9109,-2.9122,-2.9222,-2.925,-2.9259,-2.9363,-2.9298,-2.9304,-2.9308,-2.9311,-2.953,-2.9532,0,0,0,0,0,0,-2.8876,-2.8898,-2.9048,-2.9055,-2.8959,-2.9044,-2.9058,-2.9092,-2.9168,-2.9178,-2.9123,-2.9123,-2.9239,-2.9251,-2.9263,-2.9353,-2.9305,-2.9311,-2.9315,-2.9528,-2.953,-2.9532,0,0,0,0,0,0,-2.8871,-2.8889,-2.9043,-2.8977,-2.8997,-2.9049,-2.9087,-2.9095,-2.9123,-2.9181,-2.919,-2.9142,-2.9238,-2.9254,-2.9328,-2.9357,-2.9314,-2.932,-2.9526,-2.9529,-2.9531,-2.9531,0,0,0,0,0,0,-2.8866,-2.8887,-2.8913,-2.8977,-2.9,-2.9103,-2.9089,-2.9099,-2.9134,-2.9134,-2.9201,-2.921,-2.9238,-2.9318,-2.9335,-2.9366,-2.9325,-2.9523,-2.9527,-2.953,-2.9529,-2.9534,-2.9538,0,0,0,0,0,-2.8858,-2.8909,-2.8914,-2.8932,-2.9033,-2.9105,-2.9118,-2.9148,-2.9136,-2.9163,-2.9201,-2.9208,-2.9352,-2.9326,-2.9344,-2.9378,-2.9521,-2.9526,-2.953,-2.9527,-2.9533,-2.9538,0,0,0,0,0,0,-2.8848,-2.8918,-2.8924,-2.8997,-2.9045,-2.9108,-2.9143,-2.9153,-2.9206,-2.9204,-2.9241,-2.9256,-2.9328,-2.9361,-2.933,-2.9452,-2.9436,-2.9444,-2.9427,-2.9434,-2.9438,-2.9428,-2.9331,0,0,0,0,0,-2.8854,-2.8904,-2.8964,-2.9022,-2.9046,-2.9091,-2.9123,-2.9142,-2.9193,-2.9214,-2.9257,-2.9308,-2.9365,-2.9402,-2.9457,-2.9535,-2.9551,-2.9567,-2.9572,-2.9575,-2.9582,-2.9627,-2.9635,-2.9546,-2.9546,-2.9546,0,0,-2.8867,-2.8912,-2.8941,-2.9021,-2.906,-2.9114,-2.9107,-2.9163,-2.9204,-2.9223,-2.9294,-2.9329,-2.9389,-2.9465,-2.9501,-2.9494,-2.961,-2.9581,-2.9583,-2.9588,-2.9632,-2.964,-2.9648,-2.9549,-2.9549,-2.9548,0,0,-2.8918,-2.8956,-2.901,-2.9049,-2.9109,-2.9139,-2.9152,-2.9214,-2.9237,-2.9309,-2.9325,-2.9376,-2.9473,-2.9515,-2.9549,-2.962,-2.9629,-2.9637,-2.966,-2.9704,-2.9711,-2.9717,-2.9742,-2.9751,-2.9644,-2.9644,-2.9644,0,-2.8927,-2.9005,-2.9036,-2.9092,-2.9128,-2.9147,-2.9203,-2.9241,-2.9316,-2.9341,-2.9333,-2.9456,-2.9498,-2.9585,-2.9602,-2.9629,-2.9646,-2.9628,-2.9707,-2.9714,-2.972,-2.9745,-2.9754,-2.9644,-2.9644,-2.9644,-2.9644,0,-2.9014,-2.9069,-2.9105,-2.9176,-2.9216,-2.9272,-2.9313,-2.9351,-2.9368,-2.9399,-2.9474,-2.9526,-2.9592,-2.9615,-2.9632,-2.9706,-2.97,-2.9699,-2.9683,-2.9728,-2.9752,-2.9762,-2.9645,-2.9645,-2.9645,-2.9644,0,0,-2.9058,-2.9147,-2.9159,-2.9192,-2.9261,-2.9305,-2.9363,-2.9427,-2.9459,-2.9512,-2.9562,-2.9645,-2.9645,-2.9684,-2.9707,-2.9746,-2.9799,-2.9741,-2.9743,-2.9749,-2.9884,-2.9883,-2.9893,-2.9807,-2.9809,-2.981,-2.9879,0,-2.9116,-2.9217,-2.9248,-2.9334,-2.9386,-2.9407,-2.9458,-2.9507,-2.9539,-2.959,-2.9627,-2.9685,-2.9681,-2.9705,-2.9744,-2.9784,-2.9826,-2.978,-2.9855,-2.9857,-2.9837,-2.9905,-2.9904,-2.9966,-2.9888,-2.989,-2.9891,0,-2.9196,-2.9248,-2.9339,-2.9402,-2.9425,-2.947,-2.9533,-2.9581,-2.9638,-2.9659,-2.9704,-2.9724,-2.9788,-2.9771,-2.9861,-2.9828,-2.9862,-2.9887,-2.989,-2.9896,-2.9875,-2.9913,-2.9986,-2.9995,-2.9906,-2.9905,-2.9904,0,-2.9218,-2.9312,-2.9378,-2.9406,-2.9482,-2.9514,-2.9547,-2.9603,-2.964,-2.9696,-2.9721,-2.9785,-2.9819,-2.9869,-2.9907,-2.9891,-2.9994,-2.9979,-3.0014,-3.0013,-3.0032,-3.003,-3.0111,-3.0057,-3.0056,-3.0056,-3.0056,0,-2.9278,-2.9332,-2.9389,-2.943,-2.9493,-2.953,-2.9592,-2.9627,-2.9677,-2.9727,-2.9751,-2.9797,-2.9845,-2.9899,-2.993,-3.0,-3.0016,-3.0036,-3.0043,-3.0033,-3.003,-3.0053,-3.0049,-3.0059,-3.0058,-3.0058,-3.0057,0,-2.9312,-2.9352,-2.9426,-2.9493,-2.9511,-2.9554,-2.9612,-2.9654,-2.9689,-2.9751,-2.9768,-2.9823,-2.9888,-2.9931,-3.0015,-3.0036,-3.0112,-3.0119,-3.0091,-3.0094,-3.0126,-3.0122,-3.0223,-3.0239,-3.0175,-3.0176,-3.0176,0,-2.9346,-2.9389,-2.946,-2.9494,-2.9528,-2.9583,-2.9621,-2.9661,-2.9701,-2.9771,-2.9805,-2.9871,-2.9926,-3.0029,-3.0077,-3.0142,-3.015,-3.0182,-3.016,-3.0149,-3.015,-3.0146,-3.0151,-3.0184,-3.0184,-3.0185,-3.0185,0,-2.9404,-2.9422,-2.9475,-2.9537,-2.9581,-2.9632,-2.9683,-2.971,-2.976,-2.9804,-2.9869,-2.9912,-2.9998,-3.0064,-3.0133,-3.0171,-3.0187,-3.0192,-3.0203,-3.0192,-3.0174,-3.0184,-3.0099,-3.0189,-3.0188,-3.0188,-3.0188,-3.0188,-2.9438,-2.9477,-2.9534,-2.9593,-2.9636,-2.9683,-2.9726,-2.9766,-2.9821,-2.9892,-2.9914,-2.9983,-3.0043,-3.0138,-3.0177,-3.0233,-3.023,-3.0246,-3.025,-3.0253,-3.0253,-3.0167,-3.0246,-3.0246,-3.0246,-3.0246,-3.0246,0,-2.9496,-2.9534,-2.9588,-2.9658,-2.9706,-2.9717,-2.9775,-2.9814,-2.9874,-2.9927,-2.9981,-3.0058,-3.0123,-3.0178,-3.0246,-3.028,-3.029,-3.0297,-3.0294,-3.0302,-3.0252,-3.0235,-3.0288,-3.0288,-3.0288,-3.0288,-3.0288,-3.0288,-2.9531,-2.9598,-2.9624,-2.9713,-2.9752,-2.9818,-2.985,-2.9895,-2.9938,-3.0022,-3.0076,-3.0111,-3.0166,-3.0238,-3.03,-3.0314,-3.0338,-3.0343,-3.0359,-3.0311,-3.0306,-3.0301,-3.0285,-3.0348,-3.0348,-3.0405,-3.0406,-3.0406]},{"header":{"parameterUnit":"m.s-1","parameterCategory":1,"la1":30.2991,"la2":30.254,"lo1":-89.0895,"lo2":-89.0444,"dy":0.0017,"dx":0.0017,"nx":28,"ny":28,"refTime":"2026-02-17T09:00:00:Z","depth":0,"parameterNumber":3,"parameterNumberName":"V-component_of_WINDS"},"data":[0,0,0,0,0,0,0,0,0,0,0,0,0,0,0,0,0,0,0,0,0,0,0,0,0,0,0,0,0,0,0,0,0,0,0,0,0,0,0,0,0,0,0,0,0,0,0,0,0,0,0,0,0,0,0,0,0,0,1.5861,1.5862,0,1.5943,1.5944,1.5945,1.6021,1.6021,1.6022,1.6023,1.6108,1.6109,1.611,0,0,0,0,0,0,0,0,0,0,0,0,0,1.5772,1.5773,1.5861,1.5862,1.5863,1.5943,1.5944,1.5945,1.602,1.6022,1.6023,1.6024,1.6107,1.6109,1.611,0,0,0,0,0,0,0,0,0,0,0,0,0,1.5828,1.5773,1.586,1.591,1.5915,1.5942,1.5944,1.5945,1.602,1.6022,1.6023,1.6024,1.6107,1.6109,1.6111,1.6096,0,0,1.6117,1.6118,0,0,0,0,0,0,0,0,1.5824,1.5831,1.5902,1.5907,1.5913,1.5973,1.5944,1.5996,1.602,1.598,1.6023,1.6025,1.6062,1.6068,1.608,1.61,1.6103,1.6117,1.6118,1.6119,1.612,0,0,0,0,0,0,0,1.582,1.5828,1.5893,1.5903,1.5909,1.5929,1.5938,1.5954,1.6012,1.5984,1.599,1.5998,1.6065,1.6078,1.6082,1.6104,1.6117,1.6119,1.612,1.6121,1.612,1.6118,0,0,0,0,0,0,1.5809,1.5824,1.5891,1.5896,1.5871,1.5929,1.594,1.5952,1.6012,1.6023,1.5997,1.6001,1.6073,1.608,1.6086,1.6074,1.6119,1.6121,1.6122,1.6121,1.6119,1.6118,0,0,0,0,0,0,1.5806,1.5814,1.5887,1.5861,1.5872,1.5929,1.5942,1.5953,1.5966,1.6022,1.6033,1.5999,1.6075,1.6083,1.6093,1.6078,1.6122,1.6124,1.6122,1.612,1.6119,1.6048,0,0,0,0,0,0,1.5804,1.5813,1.5806,1.5861,1.5873,1.5892,1.5941,1.5954,1.5969,1.5976,1.6027,1.6037,1.6077,1.609,1.6095,1.6081,1.6126,1.6124,1.6121,1.6119,1.6052,1.6044,1.6037,0,0,0,0,0,1.58,1.5783,1.5806,1.5813,1.5867,1.5891,1.5899,1.5944,1.5967,1.5963,1.6,1.6035,1.6079,1.609,1.6097,1.6083,1.6125,1.6122,1.6119,1.6056,1.6046,1.6038,0,0,0,0,0,0,1.5724,1.5791,1.5817,1.5816,1.5848,1.5904,1.5899,1.5932,1.5957,1.5962,1.6019,1.603,1.6034,1.606,1.6072,1.6074,1.6107,1.6105,1.6056,1.6048,1.604,1.6034,1.6127,0,0,0,0,0,1.5708,1.5721,1.5779,1.5773,1.5788,1.584,1.5853,1.5886,1.592,1.5934,1.5971,1.6004,1.6026,1.6038,1.6061,1.6057,1.6071,1.6052,1.6044,1.6038,1.6035,1.6038,1.6031,1.6108,1.6108,1.6109,0,0,1.5673,1.5711,1.5716,1.5759,1.5787,1.5801,1.5851,1.5863,1.5874,1.5936,1.5948,1.5977,1.6018,1.6022,1.6025,1.6043,1.6017,1.6034,1.6029,1.603,1.6034,1.6027,1.602,1.6106,1.6107,1.6107,0,0,1.5617,1.5647,1.5646,1.5674,1.5717,1.5753,1.5753,1.5805,1.5826,1.584,1.5888,1.5903,1.5937,1.5965,1.5984,1.5943,1.5977,1.5949,1.5909,1.5911,1.5905,1.59,1.5886,1.5881,1.5946,1.5946,1.5946,0,1.5569,1.5591,1.5642,1.5652,1.567,1.5728,1.5729,1.5754,1.5801,1.5813,1.5833,1.588,1.5911,1.5924,1.5914,1.5927,1.593,1.5942,1.5902,1.5897,1.5893,1.5881,1.5875,1.5942,1.5943,1.5943,1.5944,0,1.553,1.5545,1.554,1.5585,1.5604,1.5608,1.5661,1.5674,1.5706,1.5741,1.5755,1.5796,1.5828,1.5834,1.5865,1.5852,1.5862,1.5891,1.5925,1.5881,1.5871,1.5866,1.5937,1.5938,1.594,1.594,0,0,1.5426,1.5502,1.5499,1.5522,1.5574,1.5588,1.5597,1.563,1.564,1.5672,1.5682,1.5712,1.574,1.5761,1.5797,1.5799,1.5766,1.5828,1.583,1.5815,1.5755,1.5733,1.5726,1.579,1.5789,1.5788,1.5752,0,1.5379,1.5398,1.5446,1.5451,1.5466,1.5524,1.5532,1.5566,1.5599,1.5618,1.5656,1.5677,1.5711,1.5725,1.5729,1.5768,1.5754,1.5772,1.58,1.5801,1.5788,1.5721,1.5697,1.566,1.5748,1.5748,1.5747,0,1.5326,1.5355,1.5362,1.5417,1.5425,1.5431,1.5467,1.5484,1.5525,1.555,1.5575,1.5615,1.563,1.5663,1.5685,1.5696,1.5711,1.5732,1.5732,1.5736,1.577,1.5723,1.565,1.5644,1.5741,1.5742,1.5742,0,1.525,1.5291,1.5301,1.5319,1.5383,1.5386,1.5413,1.5456,1.5474,1.5505,1.5518,1.555,1.5568,1.5593,1.5642,1.5661,1.566,1.5696,1.5681,1.568,1.5677,1.5676,1.5605,1.5687,1.5687,1.5687,1.5687,0,1.5192,1.5194,1.5269,1.5274,1.5279,1.5335,1.5339,1.5371,1.5409,1.5424,1.5476,1.5488,1.5552,1.5573,1.5611,1.5625,1.5632,1.5654,1.5664,1.5649,1.5646,1.5658,1.5662,1.5686,1.5686,1.5686,1.5686,0,1.5107,1.5157,1.5172,1.5232,1.5248,1.5249,1.5301,1.531,1.5348,1.5366,1.5373,1.5432,1.546,1.5511,1.5553,1.5579,1.5585,1.5602,1.557,1.5577,1.5559,1.556,1.5493,1.5488,1.5572,1.5572,1.5571,0,1.5067,1.507,1.5131,1.5145,1.517,1.5191,1.521,1.5267,1.5284,1.5334,1.5337,1.5369,1.5397,1.5438,1.5486,1.5519,1.5538,1.5512,1.5543,1.5529,1.5538,1.5537,1.5539,1.5504,1.5503,1.5502,1.5502,0,1.499,1.5015,1.504,1.5075,1.5096,1.5126,1.5159,1.5167,1.5232,1.525,1.5279,1.53,1.5345,1.5376,1.5416,1.5446,1.5485,1.5492,1.549,1.5475,1.5456,1.5467,1.5551,1.5493,1.5494,1.5494,1.5495,1.5495,1.4926,1.4933,1.4978,1.5005,1.5036,1.5066,1.5078,1.5118,1.5143,1.5183,1.5216,1.5242,1.5287,1.5346,1.5373,1.5396,1.5414,1.5412,1.5411,1.541,1.5404,1.5453,1.5404,1.5404,1.5404,1.5405,1.5405,0,1.4853,1.4885,1.491,1.4954,1.4976,1.5012,1.5051,1.5067,1.509,1.5129,1.5156,1.5191,1.5223,1.5274,1.531,1.5319,1.5338,1.5326,1.5326,1.5333,1.5385,1.5383,1.5311,1.5311,1.5311,1.5311,1.5311,1.5311,1.4817,1.483,1.4861,1.4891,1.4924,1.4951,1.497,1.4999,1.503,1.5067,1.5093,1.5127,1.5171,1.5212,1.5243,1.5258,1.5269,1.5252,1.5272,1.532,1.5329,1.5337,1.5335,1.5254,1.5254,1.5218,1.5217,1.5217]}]]